This is the latest recevied weather packets stored in our database for station/object OE9GTV. If no packets are shown the sender has not sent any weather packets the latest 10 day(s).
| Time | Temp. | Humidity | Pressure | Rain* | Wind** | Luminosity | Snow |
|---|---|---|---|---|---|---|---|
| 1777450274 | 13.33° C | 91% | 1015.7 hPa | 0.25 mm | - | 0 W/m² | - |
| 1777449674 | 12.78° C | 91% | 1015.8 hPa | 0.25 mm | - | 0 W/m² | - |
| 1777449074 | 12.78° C | 91% | 1015.7 hPa | 0.25 mm | - | 0 W/m² | - |
| 1777448474 | 12.22° C | 91% | 1015.6 hPa | 0.25 mm | - | 0 W/m² | - |
| 1777447874 | 12.22° C | 90% | 1015.6 hPa | 0.25 mm | - | 0 W/m² | - |
| 1777447274 | 12.22° C | 90% | 1015.5 hPa | 0.51 mm | - | 0 W/m² | - |
| 1777446674 | 12.22° C | 90% | 1015.4 hPa | 0.25 mm | - | 0 W/m² | - |
| 1777446074 | 12.22° C | 90% | 1015.4 hPa | 0.25 mm | - | 0 W/m² | - |
| 1777445474 | 11.67° C | 90% | 1015.3 hPa | 0.25 mm | - | 0 W/m² | - |
| 1777444874 | 11.67° C | 90% | 1015.4 hPa | 0.25 mm | - | 0 W/m² | - |
| 1777444274 | 11.67° C | 90% | 1015.1 hPa | 0.25 mm | - | 0 W/m² | - |
| 1777443674 | 11.67° C | 90% | 1015 hPa | 0.25 mm | - | 0 W/m² | - |
| 1777443073 | 11.67° C | 89% | 1015 hPa | 0.25 mm | - | 0 W/m² | - |
| 1777442473 | 11.67° C | 89% | 1014.9 hPa | 0.51 mm | - | 0 W/m² | - |
| 1777441873 | 11.67° C | 89% | 1014.8 hPa | 0.51 mm | - | 0 W/m² | - |
| 1777441274 | 11.67° C | 89% | 1014.8 hPa | 0.76 mm | - | 0 W/m² | - |
| 1777440673 | 11.67° C | 89% | 1014.7 hPa | 1.27 mm | - | 0 W/m² | - |
| 1777440073 | 11.67° C | 89% | 1014.6 hPa | 1.27 mm | - | 0 W/m² | - |
| 1777439473 | 11.67° C | 89% | 1014.5 hPa | 1.52 mm | - | 0 W/m² | - |
| 1777438873 | 11.67° C | 88% | 1014.5 hPa | 1.52 mm | - | 0 W/m² | - |
| 1777438273 | 11.67° C | 88% | 1014.5 hPa | 1.52 mm | - | 0 W/m² | - |
| 1777437673 | 11.67° C | 88% | 1014.4 hPa | 1.27 mm | - | 0 W/m² | - |
| 1777437073 | 11.67° C | 88% | 1014.3 hPa | 1.27 mm | - | 0 W/m² | - |
| 1777436473 | 11.67° C | 88% | 1014.4 hPa | 1.27 mm | - | 0 W/m² | - |
| 1777435873 | 11.67° C | 88% | 1014.3 hPa | 1.27 mm | - | 0 W/m² | - |
* Rain latest hour (hover to see other rain measurements)
** Current wind speed in m/s (hover to see current wind gust speed)